Tracking 17261 objects as of 28-August-2015
HD Live streaming from Space Station

COSMOS 1023

Track COSMOS 1023 now!
10-day predictions
COSMOS 1023 is classified as:


NORAD ID: 10961
Int'l Code: 1978-063A
Perigee: 765.6 km
Apogee: 789.9 km
Inclination: 74.1 °
Period: 100.3 minutes
Semi major axis: 7148 km
RCS: 3.0969 m2 (large)
Launch date: June 21, 1978
Source: Commonwealth of Independent States (former USSR) (CIS)
Your satellite tracking list
Your tracking list is empty





NASA's NSSDC Master Catalog

Two Line Element Set (TLE):
1 10961U 78063A   15239.87169242  .00000057  00000-0  28513-4 0  9995
2 10961 074.0761 123.3731 0017022 209.3885 150.6313 14.36336439946461

Source of the keplerian elements: AFSPC

N2YO: 1782